Regional Weather Roundup
Issued by NWS

Home | Current Version | Previous Version | Text Only | Print | Product List | Glossary Off
Versions: 1 2 3 4 5 6 7 8 9 10 11 12 13 14 15 16 17 18 19 20 21 22 23 24 25 26 27 28 29 30 31 32 33 34 35 36 37 38 39 40 41 42 43 44 45 46 47 48 49 50

000
ASUS43 KLOT 180906
RWRIL

ILLINOIS REGIONAL WEATHER ROUNDUP
NATIONAL WEATHER SERVICE CHICAGO/ROMEOVILLE IL
400 AM CDT THU SEP 18 2014

NOTE: "FAIR" INDICATES FEW OR NO CLOUDS BELOW 12,000 FEET WITH NO
SIGNIFICANT WEATHER AND/OR OBSTRUCTIONS TO VISIBILITY.

* THESE STATIONS ARE NOT UNDER NWS QUALITY CONTROL. THEY ALSO MAY NOT
  REPORT WEATHER SUCH AS PRECIPITATION OR FOG.

ILZ001-002-007-009-015-016-024-181000-
NORTHWEST ILLINOIS

CITY           SKY/WX    TMP DP  RH WIND       PRES   REMARKS
MOLINE         FOG       47  46  97 CALM      30.04S VSB 1/2
STERLING*      PTCLDY    48  46  93 CALM      30.05S
SAVANNA*       CLEAR     49  47  95 CALM      30.05S FOG
$$

ILZ003-004-008-010-011-017-018-181000-
NORTH CENTRAL ILLINOIS

CITY           SKY/WX    TMP DP  RH WIND       PRES   REMARKS
ROCKFORD       CLEAR     49  46  90 CALM      30.08S
FREEPORT*      FOG       44  42  94 CALM      30.08S VSB 3/4
ROCHELLE*      CLEAR     46  45  95 CALM      30.06S
DE KALB*       CLEAR     48  46  92 CALM      30.07S
PERU*          CLEAR     49  47  93 NE5       30.05S
$$

ILZ005-006-012>014-019>023-181000-
NORTHEAST ILLINOIS

CITY           SKY/WX    TMP DP  RH WIND       PRES   REMARKS
CHICAGO-OHARE  CLEAR     54  49  83 N3        30.05S
CHICAGO-MIDWAY CLEAR     54  49  83 CALM      30.05S
AURORA         CLEAR     45  42  89 CALM      30.06S
LANSING*       CLEAR     47  47  97 CALM      30.06R FOG
JOLIET*        CLEAR     46  44  96 CALM      30.07S FOG
WAUKEGAN       CLEAR     52  48  86 N5        30.06R
DUPAGE AIRPORT CLEAR     48  44  86 CALM      30.06R
KANKAKEE*      CLEAR     46  46  99 CALM      30.06S FOG
WHEELING       CLEAR     50  46  86 CALM      30.07S
MORRIS*        CLEAR     48  48 100 CALM      30.05S FOG
ROMEOVILLE*    CLEAR     49  48  98 CALM      30.06S
NORTHERLY ISL    N/A     56  49  77 CALM        N/A
$$

LMZ740>746-181000-
SOUTHERN LAKE MICHIGAN

STATION/POSITION SKY/WX   TEMP    WIND        PRES    VSBY  WAVE
                          AIR SEA DIR/SP/G                  HT/PER
                          (F)     (DEG/KT/KT) (MB)    (MI)  (FT/S)
SOUTHERN BUOY              62 65  300/ 10/ 12 1018.0R         0
WAUKEGAN HARBOR            56     290/  2/  5   N/A
HARRISON CRIB              58     280/  2/  3   N/A
BURNHAM HARBOR             57      CALM  /  3   N/A
CALUMET HARBOR             54     200/  1/  2 1016.5R
MICHIGAN CITY              51     110/  7/  8   N/A
MICHIGAN CITY 6N           58 64  160/  2/  4   N/A           0
ST. JOSEPH                 60 67  100/  6/  8   N/A           0
$$

ILZ025>027-034>036-040-047-049-050-058-095>099-181000-
WEST-CENTRAL ILLINOIS

CITY           SKY/WX    TMP DP  RH WIND       PRES   REMARKS
QUINCY         FOG       48  47  96 NE5       30.00S VSB 3/4
GALESBURG*     CLEAR     45  44  96 CALM      30.03F FOG
MACOMB*        FOG       44  44 100 CALM      30.04F VSB 1/2
JACKSONVILLE*  CLEAR     49  48  97 CALM      30.02R FOG
PITTSFIELD*    FOG       51  49  94 CALM      30.02R VSB 1/4
$$

ILZ028>032-037-038-041>044-048-051>054-059>061-181000-
CENTRAL ILLINOIS

CITY           SKY/WX    TMP DP  RH WIND       PRES   REMARKS
PONTIAC        CLEAR     48  48 100 CALM      30.04S FOG
DECATUR        CLEAR     51  50  96 NE5       30.02F FOG
PEORIA         CLEAR     53  50  89 NE3       30.03F FOG
LACON*         FOG       48  47  97 CALM      30.03S VSB 1
LINCOLN*       CLEAR     50  49  95 CALM      30.00F
SPRINGFIELD    CLEAR     52  50  93 NE7       30.01F
TAYLORVILLE    FOG       46  46 100 CALM      30.01F VSB 1/2
$$

ILZ033-039-045-046-055>057-062-063-181000-
EAST-CENTRAL ILLINOIS

CITY           SKY/WX    TMP DP  RH WIND       PRES   REMARKS
CHAMPAIGN      CLEAR     51  49  92 N3        30.03F
DANVILLE*      CLEAR     46  46  98 CALM      30.02S
RANTOUL*       CLEAR     55  50  83 NE7       30.05S
MATTOON        CLEAR     50  48  93 NE6       30.01F
PARIS*         CLEAR     51  51 100 CALM      30.05S FOG
$$

ILZ079-100>102-181000-
SOUTHWEST ILLINOIS

CITY           SKY/WX    TMP DP  RH WIND       PRES   REMARKS
ALTON          CLOUDY    59  56  88 CALM      29.99S
BELLEVILLE     CLOUDY    61  59  94 VRB2      29.98S
CAHOKIA*       CLOUDY    62  57  83 CALM      29.99R
SPARTA*        FOG       55  54  95 CALM      29.99R VSB 3/4
$$

ILZ064>066-069>071-074>076-080>082-084>086-088>090-092>094-181000-
SOUTH-CENTRAL ILLINOIS

CITY           SKY/WX    TMP DP  RH WIND       PRES   REMARKS
CARBONDALE     CLOUDY    61  57  87 CALM      29.97F
CAIRO*         CLOUDY    60  58  93 CALM      29.96S FOG
EFFINGHAM*     CLEAR     52  50  93 E3        30.00F
MARION         CLEAR     59  57  94 N3        29.98S
MT. VERNON     CLOUDY    59  54  82 NE6       29.99F
CENTRALIA*     CLOUDY    60  53  79 E6        29.98F
SALEM*         CLOUDY    62  56  80 E3        29.98F
METROPOLIS*    CLOUDY    61  60  97 CALM      29.96R
$$

ILZ067-068-072-073-078-083-087-091-181000-
SOUTHEAST ILLINOIS

CITY           SKY/WX    TMP DP  RH WIND       PRES   REMARKS
LAWRENCEVILLE  CLOUDY    56  53  90 NE5       30.01F
FLORA*         CLEAR     58  55  89 CALM      30.00F
FAIRFIELD*     CLOUDY   N/A N/A N/A NE5       29.98F
HARRISBURG*    PTCLDY    60  57  89 NE5       29.99S
ROBINSON*      FOG       50  50  99 N3        30.03S VSB 1/4
CARMI*         CLOUDY    61  56  84 NE3       29.99S
$$

ABBREVIATIONS USED IN REMARKS
   TC - TEMPERATURE IN CELSIUS
  WCI - WIND CHILL INDEX
   HX - HEAT INDEX
  VSB - VISIBILITY
$$




USA.gov is the U.S. government's official web portal to all federal, state and local government web resources and services.